Regional Weather Roundup
Issued by NWS

Home | Current Version | Previous Version | Graphics & Text | Print | Product List | Glossary On
Versions: 1 2 3 4 5 6 7 8 9 10 11 12 13 14 15 16 17 18 19 20 21 22 23 24 25 26 27 28 29 30 31 32 33 34 35 36 37 38 39 40 41 42 43 44 45 46 47 48 49 50
000
ASUS45 KTFX 192304
RWRMT
MONTANA HOURLY WEATHER ROUNDUP
NATIONAL WEATHER SERVICE GREAT FALLS MT
504 PM MDT TUE AUG 19 2014

NOTE: "FAIR" INDICATES FEW OR NO CLOUDS BELOW 12000 FEET WITH NO
SIGNIFICANT WEATHER AND/OR OBSTRUCTIONS TO VISIBILITY.

* THESE STATIONS ARE NOT UNDER NWS QUALITY CONTROL. THEY DO NOT
   REPORT WEATHER SUCH AS PRECIPITATION OR FOG.

MTZ001>007-043-200000-
WEST OF THE DIVIDE
CITY           SKY/WX    TMP DP  RH WIND       PRES   REMARKS
KALISPELL      LGT RAIN  68  57  68 S7        29.75R
MISSOULA       PTCLDY    90  34  14 NW15      29.72F
BUTTE          TSTM      70  39  32 SW22G39   29.92R
MULLAN PASS    MOCLDY    63  52  68 VRB5      29.94R
* ESSEX        N/A       78  44  30 S1G9       N/A
* LINCOLN      N/A       83  39  21 SW6G16     N/A
* LOOKOUT PASS N/A       68  50  53 NE6G11     N/A
* POLSON       N/A       69  49  49 NW4G15     N/A
* RONAN APT    MOCLDY    73  48  41 W22G29     N/A
* SEELEY LAKE  N/A       82  39  22 NW5G14     N/A
* THOMP F APT  MOCLDY    76  42  30 SW2G15     N/A
* YAAK HILL    N/A       87  44  22 NW3G11     N/A
$$

MTZ008-052>055-200000-
SOUTHWEST MONTANA
CITY           SKY/WX    TMP DP  RH WIND       PRES   REMARKS
BOZEMAN        TSTM      64  55  73 W6        29.86R
DILLON         LGT RAIN  63  50  63 SE13      29.90R
W YELLOWSTONE  CLOUDY    59  45  60 W3        30.04R
* THREE FORKS  MOCLDY    75  59  58 N/A        N/A
* BOULDER HILL N/A       78  39  25 S11G16     N/A
* MONIDA PASS  N/A       70  38  31 SE7G13     N/A
* RAYNOLDS PAS N/A       61   2   9 VRB9       N/A
* WHITEHALL    N/A       80  46  30 SE7G12     N/A
* WISE RIVER   N/A       64  28  26 W28G38     N/A
$$

MTZ009>010-012-014-046-048-049-054-200000-
EAST SLOPES AND CENTRAL MONTANA
CITY           SKY/WX    TMP DP  RH WIND       PRES   REMARKS
CUT BANK       PTCLDY    81  52  37 N10       29.71F
GREAT FALLS    PTCLDY    88  39  18 SW10      29.70F
HELENA         MOCLDY    88  39  18 CALM      29.72F
MALMSTROM AFB  PTCLDY    86  37  17 W13G22    29.70F
* CONRAD       CLEAR     88  48  25 NW5        N/A
* DEARBORN     N/A       86  39  19 S4         N/A
* EAST GLACIER N/A       75  45  34 W16G22     N/A
* MONARCH      N/A       80  35  20 NW9G17     N/A
* PENDROY      N/A       82  39  22 W9         N/A
* ROGERS PASS  N/A       77  34  21 E8G22      N/A
* SAINT MARY   N/A       68  56  66 S6G21      N/A
* SWEET GRASS  N/A       72  57  59 E8         N/A
$$

MTZ011-013-016-021-035-040-045-047-050-051-200000-
NORTH CENTRAL MONTANA
CITY           SKY/WX    TMP DP  RH WIND       PRES   REMARKS
HAVRE          PTCLDY    90  41  18 W13       29.61F
LEWISTOWN      PTCLDY    88  36  16 W8        29.74F
* CHESTER      N/A       83  42  23 N9G15      N/A
* DENTON       N/A       90  40  17 W14G21     N/A
* GEYSER       N/A       86  39  19 NW20G26    N/A
* JUDITH GAP   N/A       86  40  20 W9G19      N/A
* LOMA         N/A       90  40  17 W10G19     N/A
$$

MTZ017>020-022>027-061-062-200000-
NORTHEAST MONTANA
CITY           SKY/WX    TMP DP  RH WIND       PRES   REMARKS
GLASGOW        PTCLDY    93  43  18 W9        29.60F
GLENDIVE       CLEAR     91  46  21 SW7       29.67S
JORDAN         PTCLDY    90  46  22 SW7       29.64F
SIDNEY         CLEAR     91  61  37 SE7       29.65F
WOLF POINT     PTCLDY    97  43  16 W8        29.58F
* BEAVER HILL  N/A       89  52  28 SE3G9      N/A
* CIRCLE       N/A       93  47  21 SW9G21     N/A
* SACO         N/A       93  51  24 SW9        N/A
$$

MTZ028>042-056>058-200000-
SOUTHCENTRAL AND SOUTHEAST MONTANA
CITY           SKY/WX    TMP DP  RH WIND       PRES   REMARKS
BAKER          MOCLDY    88  52  29 E12       29.72S
BILLINGS       CLOUDY    90  37  15 SW10G18   29.72S
LIVINGSTON     CLOUDY    79  34  20 S28G38    29.78F
MILES CITY     PTCLDY    95  37  13 W7        29.65F
* LAUREL APT   CLOUDY    90  39  17 S13        N/A
* ROUNDUP APT  MOCLDY    90  37  15 SE6        N/A
* HYSHAM       N/A       90  38  16 NW9G18     N/A
* LAME DEER    N/A       86  36  17 W6G12      N/A
* REED POINT   N/A       86  43  22 E4G9       N/A
* ROSCOE HILL  N/A       74  38  27 E4         N/A
$$

REGIONAL REPORTS...DAKOTAS
CITY           SKY/WX    TMP DP  RH WIND       PRES   REMARKS
WILLISTON      CLEAR     91  54  28 SE12      29.66F
DICKINSON      CLEAR     86  59  40 SE12      29.71F HI  85
BEACH          N/A       84  59  43 S14       29.70F HI  84
CROSBY         CLEAR     84  55  37 SE10      29.68F
TIOGA          CLEAR     84  55  37 SE13G20   29.74F
WATFORD CITY   CLEAR     88  55  33 SE10G17   29.66F
BISMARCK       CLEAR     88  61  40 SE8       29.73F HI  88
GRAND FORKS    FAIR      82  64  55 NE6       29.72F HI  84
FARGO          CLEAR     82  63  53 CALM      29.73F HI  83
BUFFALO SD     PTCLDY    90  54  29 SE16      29.68F
RAPID CITY     MOCLDY    82  63  53 N3        29.76F HI  83
$$

REGIONAL REPORTS...WYOMING/IDAHO/WASHINGTON
CITY           SKY/WX    TMP DP  RH WIND       PRES   REMARKS
GILLETTE       MOCLDY    91  34  13 W8        29.78F
SHERIDAN       MOCLDY    90  37  15 SE5       29.74F
CODY           CLOUDY    79  39  24 S18G25    29.85F
YELLOWSTONE LA CLOUDY    63  37  38 N13G23    30.09F
SALMON         CLOUDY    70  55  59 CALM      29.83F
MULLAN PASS    MOCLDY    63  52  68 VRB5      29.94S
SAND POINT     MOCLDY    81  52  37 SW3       29.70F
SPOKANE        MOCLDY    88  45  22 W8G18     29.69F
$$

REGIONAL REPORTS...SASKATCHEWAN
CITY           SKY/WX    TMP DP  RH WIND       PRES   REMARKS
MOOSE JAW      TSTM     N/A N/A N/A S14G21     N/A

$$




USA.gov is the U.S. government's official web portal to all federal, state and local government web resources and services.